Location: Yoder Observing Site
(32.2942°N, 83.9813°W)
Time: 11:52:23
(UTC-04:00)

Hubble Space Telescope - Visible Passes

Search period start: 23 July 2018 00:00
Search period end: 02 August 2018 00:00
Orbit: 537 x 541 km, 28.5° (Epoch: 22 July)

Date Brightness Start Highest point End Pass type
(mag) Time Alt. Az. Time Alt. Az. Time Alt. Az.
23 Jul 2.2 04:44:00 25° SE 04:44:00 25° SE 04:46:07 10° ESE visible
24 Jul 3.1 04:34:55 14° SE 04:34:55 14° SE 04:35:37 10° SE visible
24 Jul 2.7 06:10:32 10° SW 06:12:35 13° SSW 06:14:37 10° S visible
25 Jul 2.8 06:01:25 10° SW 06:02:07 10° SSW 06:02:52 10° SSW visible
27 Jul 2.8 21:05:43 10° S 21:06:48 11° SSE 21:07:53 10° SE visible
27 Jul 3.2 22:43:49 10° SW 22:44:14 12° SW 22:44:14 12° SW visible
28 Jul 2.4 22:33:17 10° SW 22:35:05 22° SW 22:35:05 22° SW visible
29 Jul 1.7 22:22:47 10° WSW 22:25:45 34° SSW 22:25:45 34° SSW visible
30 Jul 1.2 22:12:19 10° WSW 22:16:15 43° S 22:16:15 43° S visible
31 Jul 1.1 22:01:53 10° WSW 22:05:52 46° S 22:06:36 41° SE visible
01 Aug 1.1 21:51:29 10° WSW 21:55:29 49° S 21:56:51 34° SE visible
